Powrót do katalogu

STARLINK-33662

AktywnyŁącznośćVLEO
NORAD 63285·PAYLOAD·🇺🇸 United States

Wystrzelony Mar 15, 2025 z Cape Canaveral Space Force Station

Loading…

Następne Przeloty (najbliższe 24 godziny)

TLE

ŚwieżeSource: CelesTrak SupGP

Epoka: Sep 15, 2026, 03:33 UTC

1 63285C 25053W   26258.14840278 -.00041051  00000+0 -14871-2 0  2589
2 63285  43.0028 251.6969 0001364 268.2540 322.1553 15.27593115    13

Śledź STARLINK-33662 w czasie rzeczywistym z AllMySat

Download on the App Store